370P/NEAT (2018)

Japanese version
Home page
Updated on October 24, 2018

---------------------------------------------------------------------

* Profile

Designation 370P/2018 P2
Recovery Date August 10, 2018
Magnitude 18.8 mag
Recoverer E. Schwab (Egelsbach, Germany), P. Ruiz (European Space Agency's Optical Ground Station, Tenerife, Spain)

* Pictures

* Orbital Elements

Epoch 2018 June 11.0 TT = JDT 2458280.5
T 2018 June  9.50134 TT                                 MPCW
q   2.4853397            (2000.0)            P               Q
n   0.06023086     Peri.  356.77946     +0.61382989     -0.74088027
a   6.4455008      Node    55.16339     +0.73151499     +0.40397684
e   0.6144070      Incl.   19.39738     +0.29681423     +0.53656234
P  16.36
From 143 observations 2001 Aug. 20-2018 Aug. 12, mean residual 0".5.

* Magnitudes Graph

        m1 = 3.5 + 5 log d + 30.0

---------------------------------------------------------------------

The orbital elements are published on M.P.E.C. 2018-P81.
The magnitudes graphs are made with Comet for Windows.

---------------------------------------------------------------------

Copyright(C) Seiichi Yoshida (comet@aerith.net). All rights reserved.